Weather History for Tiree, United Kingdom

Change the Weather History Date:

Friday, August 2, 2013

  Actual Average Record
Temperature  
Mean Temperature 60 °F -  
Max Temperature 64 °F 61 °F 68 °F (1999)
Min Temperature 57 °F 52 °F 51 °F (1998)
Degree Days  
Heating Degree Days 4    
Growing Degree Days 10 (Base 50)    
Moisture  
Dew Point 57 °F    
Average Humidity 87    
Maximum Humidity 100    
Minimum Humidity 69    
Precipitation  
Precipitation 0.03 in 0.13 in - ()
Sea Level Pressure  
Sea Level Pressure 29.40 in    
Wind  
Wind Speed 22 mph ()    
Max Wind Speed 36 mph    
Max Gust Speed 47 mph    
Visibility 6.0 miles    
Events Rain    
Averages and records for this station are not official NWS values.
T = Trace of Precipitation, MM = Missing Value Source: Averaged Metar Reports

Daily Weather History Graph

Daily Weather History Graph

Search for Another Location

Airport:

Trip Planner

Search our weather history database for the weather conditions in past years. The results will help you decide how hot, cold, wet, or windy it might be!

Date:

Astronomy

Aug. 02, 2013 Rise Set
Actual Time 5:31 AM BST 9:35 PM BST
Civil Twilight 4:41 AM BST 10:23 PM BST
Nautical Twilight 3:27 AM BST 11:36 PM BST
Astronomical Twilight 2:06 AM BST 1:01 AM BST
Moon 1:33 AM BST (8/2) 6:30 PM BST (8/2)
Length of Visible Light 17h 42m
Length of Day
16h 04m
Waning Crescent, 17% of the Moon is Illuminated
Aug 2
Waning Crescent
Aug 6
New
Aug 14
First Quarter
Aug 21
Full
Aug 28
Last Quarter

Hourly Weather History & Observations

Time (BST) Temp. Dew Point Humidity Pressure Visibility Wind Dir Wind Speed Gust Speed Precip Events Conditions
12:20 AM 59.0 °F 57.2 °F 94% 29.47 in 6.2 mi Variable 24.2 mph - N/A   Partly Cloudy
12:50 AM 60 °F 58 °F 91% 29.48 in 6 mi SSE 24.2 mph - - Rain Rain
12:50 AM 59.0 °F 59.0 °F 100% 29.47 in 6.2 mi Variable 24.2 mph - N/A   Mostly Cloudy
1:20 AM 59.0 °F 57.2 °F 94% 29.47 in 5.6 mi Variable 20.7 mph - N/A   Mostly Cloudy
1:50 AM 59.0 °F 57.2 °F 94% 29.44 in 6.2 mi SSE 19.6 mph - N/A   Mostly Cloudy
2:20 AM 59.0 °F 57.2 °F 94% 29.44 in 6.2 mi SSE 23.0 mph - N/A   Mostly Cloudy
2:50 AM 59.0 °F 57.2 °F 94% 29.42 in 6.2 mi Variable 23.0 mph - N/A   Scattered Clouds
3:20 AM 59.0 °F 57.2 °F 94% 29.42 in 5.0 mi SE 21.9 mph - N/A   Scattered Clouds
3:50 AM 59 °F 58 °F 93% 29.43 in 5 mi SSE 20.7 mph - -   Mist
3:50 AM 59.0 °F 57.2 °F 94% 29.42 in 5.0 mi SSE 20.7 mph - N/A   Mostly Cloudy
4:20 AM 59.0 °F 57.2 °F 94% 29.42 in 5.0 mi SSE 19.6 mph - N/A   Overcast
4:50 AM 59.0 °F 59.0 °F 100% 29.39 in 5.0 mi SE 23.0 mph - N/A   Overcast
5:20 AM 59.0 °F 59.0 °F 100% 29.39 in 3.7 mi SSE 23.0 mph - N/A   Mostly Cloudy
5:50 AM 59.0 °F 59.0 °F 100% 29.39 in 3.7 mi SE 24.2 mph - N/A   Overcast
6:20 AM 59.0 °F 57.2 °F 94% 29.39 in 4.3 mi SE 24.2 mph - N/A   Scattered Clouds
6:50 AM 59 °F 57 °F 92% 29.39 in 7 mi SSE 26.5 mph - -  
6:50 AM 59.0 °F 57.2 °F 94% 29.39 in 6.2 mi SSE 26.5 mph - N/A   Partly Cloudy
7:20 AM 59.0 °F 57.2 °F 94% 29.39 in 6.2 mi SSE 25.3 mph - N/A   Scattered Clouds
7:50 AM 59.0 °F 57.2 °F 94% 29.39 in 6.2 mi SSE 20.7 mph - N/A   Unknown
8:20 AM 59.0 °F 57.2 °F 94% 29.39 in 6.2 mi SE 23.0 mph - N/A   Scattered Clouds
8:50 AM 60.8 °F 57.2 °F 88% 29.39 in 6.2 mi SSE 21.9 mph - N/A   Scattered Clouds
9:20 AM 60.8 °F 57.2 °F 88% 29.39 in 6.2 mi SSE 25.3 mph - N/A   Partly Cloudy
9:50 AM 60 °F 56 °F 83% 29.39 in 8 mi SSE 25.3 mph - -   Partly Cloudy
9:50 AM 60.8 °F 55.4 °F 82% 29.39 in 6.2 mi SSE 25.3 mph - N/A   Mostly Cloudy
10:20 AM 60.8 °F 55.4 °F 82% 29.39 in 6.2 mi SSE 26.5 mph - N/A   Mostly Cloudy
10:50 AM 62.6 °F 57.2 °F 82% 29.39 in 6.2 mi SSE 27.6 mph - N/A   Scattered Clouds
11:20 AM 62.6 °F 57.2 °F 82% 29.39 in 6.2 mi South 31.1 mph - N/A   Scattered Clouds
11:50 AM 62.6 °F 57.2 °F 82% 29.39 in 6.2 mi South 28.8 mph - N/A   Partly Cloudy
12:20 PM 62.6 °F 57.2 °F 82% 29.39 in 6.2 mi South 27.6 mph 39.1 mph N/A   Partly Cloudy
12:50 PM 63 °F 56 °F 70% 29.41 in 9 mi South 27.6 mph - -   Mostly Cloudy
12:50 PM 62.6 °F 55.4 °F 77% 29.39 in 6.2 mi South 27.6 mph - N/A   Partly Cloudy
1:20 PM 64.4 °F 57.2 °F 77% 29.39 in 6.2 mi South 26.5 mph - N/A   Unknown
1:50 PM 64.4 °F 57.2 °F 77% 29.39 in 6.2 mi South 26.5 mph - N/A   Partly Cloudy
2:20 PM 64.4 °F 57.2 °F 77% 29.39 in 6.2 mi South 26.5 mph - N/A   Partly Cloudy
2:50 PM 64.4 °F 55.4 °F 73% 29.39 in 6.2 mi South 26.5 mph - N/A   Partly Cloudy
3:20 PM 64.4 °F 57.2 °F 77% 29.39 in 6.2 mi South 23.0 mph - N/A   Unknown
3:50 PM 64 °F 56 °F 69% 29.40 in 10 mi South 21.9 mph - -   Scattered Clouds
3:50 PM 64.4 °F 57.2 °F 77% 29.39 in 6.2 mi South 21.9 mph - N/A   Unknown
4:20 PM 62.6 °F 55.4 °F 77% 29.39 in 6.2 mi Variable 25.3 mph - N/A   Unknown
4:50 PM 60.8 °F 55.4 °F 82% 29.39 in 6.2 mi South 21.9 mph - N/A   Unknown
5:20 PM 60.8 °F 57.2 °F 88% 29.39 in 6.2 mi South 21.9 mph - N/A   Unknown
5:50 PM 60.8 °F 57.2 °F 88% 29.39 in 6.2 mi South 19.6 mph - N/A   Unknown
6:20 PM 60.8 °F 55.4 °F 82% 29.39 in 6.2 mi South 20.7 mph - N/A   Unknown
6:50 PM 61 °F 56 °F 79% 29.41 in 8 mi South 21.9 mph - - Rain Rain
6:50 PM 60.8 °F 55.4 °F 82% 29.39 in 6.2 mi South 21.9 mph - N/A   Partly Cloudy
7:20 PM 59.0 °F 55.4 °F 88% 29.39 in 6.2 mi South 20.7 mph - N/A   Partly Cloudy
7:50 PM 59.0 °F 55.4 °F 88% 29.39 in 6.2 mi South 21.9 mph - N/A   Unknown
8:20 PM 59.0 °F 55.4 °F 88% 29.39 in 6.2 mi South 20.7 mph - N/A   Unknown
8:50 PM 59.0 °F 55.4 °F 88% 29.39 in 6.2 mi South 20.7 mph - N/A   Partly Cloudy
9:20 PM 59.0 °F 55.4 °F 88% 29.39 in 6.2 mi South 20.7 mph - N/A   Partly Cloudy
9:50 PM 59 °F 55 °F 82% 29.39 in 6 mi South 26.5 mph - - Rain Light Rain Showers
9:50 PM 59.0 °F 55.4 °F 88% 29.39 in 6.2 mi South 26.5 mph - N/A Rain Light Rain Showers
10:20 PM 57.2 °F 53.6 °F 88% 29.39 in 4.3 mi South 31.1 mph - N/A Rain Light Rain Showers
10:50 PM 57.2 °F 53.6 °F 88% 29.39 in 3.7 mi South 35.7 mph 47.2 mph N/A Rain Light Rain
11:20 PM 57.2 °F 55.4 °F 94% 29.39 in 5.0 mi South 33.4 mph 46.0 mph N/A Rain Light Rain
11:50 PM 57.2 °F 55.4 °F 94% 29.39 in - SSW 33.4 mph 46.0 mph N/A Rain Light Rain